Time,TemperatureF,DewpointF,PressureIn,WindDirection,WindDirectionDegrees,WindSpeedMPH,WindSpeedGustMPH,Humidity,HourlyPrecipIn,Conditions,Clouds,dailyrainin,SoftwareType,DateUTC
2013-07-24 00:11:00,74.0,68.0,29.68,WSW,256,0.0,0.0,81,0.00,,,1.35,,2013-07-24 04:11:00,
2013-07-24 00:43:00,73.0,68.0,29.68,WSW,256,0.0,0.0,83,0.00,,,1.34,,2013-07-24 04:43:00,
2013-07-24 00:52:00,73.0,68.0,29.68,WSW,256,0.0,0.0,83,0.00,,,1.34,,2013-07-24 04:52:00,
2013-07-24 01:11:00,73.0,68.0,29.68,WSW,256,0.0,0.0,83,0.00,,,1.34,,2013-07-24 05:11:00,
2013-07-24 01:22:00,73.0,68.0,29.68,WSW,256,0.0,0.0,83,0.00,,,1.33,,2013-07-24 05:22:00,
2013-07-24 01:43:00,72.0,67.0,29.68,WSW,256,0.0,0.0,84,0.00,,,1.33,,2013-07-24 05:43:00,
2013-07-24 01:52:00,72.0,67.0,29.68,WSW,256,0.0,0.0,85,0.00,,,1.33,,2013-07-24 05:52:00,
2013-07-24 02:01:00,71.0,67.0,29.67,WSW,256,0.0,0.0,86,0.00,,,1.31,,2013-07-24 06:01:00,
2013-07-24 02:24:00,71.0,67.0,29.67,WSW,256,0.0,0.0,87,0.00,,,1.31,,2013-07-24 06:24:00,
2013-07-24 02:53:00,71.0,67.0,29.67,WSW,256,0.0,0.0,87,0.00,,,1.29,,2013-07-24 06:53:00,
2013-07-24 03:02:00,71.0,67.0,29.67,WSW,256,0.0,0.0,88,0.00,,,1.25,,2013-07-24 07:02:00,
2013-07-24 03:12:00,71.0,67.0,29.67,WSW,256,0.0,0.0,88,0.00,,,1.25,,2013-07-24 07:12:00,
2013-07-24 03:32:00,70.0,66.0,29.67,WSW,256,0.0,0.0,88,0.00,,,1.17,,2013-07-24 07:32:00,
2013-07-24 04:02:00,70.0,67.0,29.67,WSW,256,0.0,0.0,89,0.00,,,0.94,,2013-07-24 08:02:00,
2013-07-24 04:12:00,70.0,66.0,29.67,WSW,256,0.0,0.0,88,0.00,,,0.66,,2013-07-24 08:12:00,
2013-07-24 04:32:00,70.0,67.0,29.67,WSW,256,0.0,0.0,89,0.00,,,0.32,,2013-07-24 08:32:00,
2013-07-24 04:43:00,70.0,67.0,29.67,WSW,256,0.0,0.0,89,0.00,,,0.21,,2013-07-24 08:43:00,
2013-07-24 04:52:00,70.0,67.0,29.67,WSW,256,0.0,0.0,89,0.00,,,0.21,,2013-07-24 08:52:00,
2013-07-24 05:02:00,70.0,67.0,29.67,WSW,256,0.0,0.0,90,0.00,,,0.20,,2013-07-24 09:02:00,
2013-07-24 05:12:00,70.0,67.0,29.67,WSW,256,0.0,0.0,90,0.00,,,0.19,,2013-07-24 09:12:00,
2013-07-24 05:32:00,70.0,67.0,29.67,WSW,256,0.0,0.0,90,0.00,,,0.19,,2013-07-24 09:32:00,
2013-07-24 05:43:00,70.0,67.0,29.68,WSW,256,0.0,0.0,90,0.00,,,0.19,,2013-07-24 09:43:00,
2013-07-24 05:53:00,70.0,67.0,29.68,WSW,256,0.0,0.0,90,0.00,,,0.19,,2013-07-24 09:53:00,
2013-07-24 06:02:00,70.0,67.0,29.68,WSW,256,0.0,0.0,90,0.00,,,0.19,,2013-07-24 10:02:00,
2013-07-24 06:12:00,70.0,67.0,29.69,WSW,256,0.0,0.0,90,0.00,,,0.19,,2013-07-24 10:12:00,
2013-07-24 06:22:00,70.0,67.0,29.69,WSW,256,0.0,0.0,90,0.00,,,0.19,,2013-07-24 10:22:00,
2013-07-24 06:43:00,70.0,66.0,29.70,WSW,256,0.0,0.0,87,0.00,,,0.19,,2013-07-24 10:43:00,
2013-07-24 06:53:00,70.0,66.0,29.70,WSW,256,0.0,0.0,87,0.00,,,0.19,,2013-07-24 10:53:00,
2013-07-24 07:02:00,70.0,65.0,29.71,WSW,256,0.0,0.0,85,0.00,,,0.19,,2013-07-24 11:02:00,
2013-07-24 07:12:00,70.0,65.0,29.71,WSW,256,0.0,0.0,85,0.00,,,0.19,,2013-07-24 11:12:00,
2013-07-24 07:22:00,70.0,65.0,29.71,WSW,256,0.0,0.0,85,0.00,,,0.19,,2013-07-24 11:22:00,
2013-07-24 07:44:00,71.0,66.0,29.72,WSW,256,0.0,0.0,83,0.00,,,0.19,,2013-07-24 11:44:00,
2013-07-24 07:52:00,71.0,66.0,29.72,WSW,256,0.0,0.0,83,0.00,,,0.19,,2013-07-24 11:52:00,
2013-07-24 08:02:00,71.0,65.0,29.73,WSW,256,0.0,0.0,82,0.00,,,0.19,,2013-07-24 12:02:00,
2013-07-24 08:12:00,71.0,65.0,29.73,WSW,256,0.0,0.0,81,0.00,,,0.19,,2013-07-24 12:12:00,
2013-07-24 08:32:00,72.0,64.0,29.73,WSW,256,0.0,0.0,75,0.00,,,0.19,,2013-07-24 12:32:00,
2013-07-24 08:52:00,74.0,64.0,29.75,WSW,256,0.0,0.0,71,0.00,,,0.19,,2013-07-24 12:52:00,
2013-07-24 09:12:00,74.0,64.0,29.75,WSW,256,0.0,0.0,72,0.00,,,0.19,,2013-07-24 13:12:00,
2013-07-24 09:32:00,75.0,65.0,29.75,WSW,256,0.0,0.0,71,0.00,,,0.19,,2013-07-24 13:32:00,
2013-07-24 10:02:00,76.0,64.0,29.77,WSW,256,0.0,0.0,66,0.00,,,0.19,,2013-07-24 14:02:00,
2013-07-24 10:12:00,76.0,64.0,29.77,WSW,256,0.0,0.0,66,0.00,,,0.19,,2013-07-24 14:12:00,
2013-07-24 10:32:00,76.0,65.0,29.77,WSW,256,0.0,0.0,68,0.00,,,0.19,,2013-07-24 14:32:00,
2013-07-24 10:43:00,77.0,64.0,29.78,WSW,256,0.0,0.0,65,0.00,,,0.19,,2013-07-24 14:43:00,
2013-07-24 10:55:00,77.0,64.0,29.78,WSW,256,0.0,0.0,65,0.00,,,0.19,,2013-07-24 14:55:00,
2013-07-24 11:12:00,76.0,62.0,29.79,North,359,0.0,0.0,63,0.00,,,0.19,,2013-07-24 15:12:00,
2013-07-24 11:33:00,76.0,62.0,29.81,North,359,0.0,0.0,62,0.00,,,0.19,,2013-07-24 15:33:00,
2013-07-24 11:43:00,76.0,62.0,29.81,North,359,0.0,0.0,61,0.00,,,0.19,,2013-07-24 15:43:00,
2013-07-24 12:02:00,77.0,62.0,29.81,North,359,0.0,0.0,59,0.00,,,0.19,,2013-07-24 16:02:00,
2013-07-24 12:12:00,77.0,62.0,29.81,North,359,0.0,0.0,59,0.00,,,0.19,,2013-07-24 16:12:00,
2013-07-24 12:22:00,77.0,62.0,29.81,North,359,0.0,0.0,59,0.00,,,0.19,,2013-07-24 16:22:00,
2013-07-24 12:33:00,77.0,63.0,29.82,North,359,0.0,0.0,61,0.00,,,0.19,,2013-07-24 16:33:00,
2013-07-24 12:43:00,77.0,61.0,29.82,WNW,291,0.0,0.0,58,0.00,,,0.19,,2013-07-24 16:43:00,
2013-07-24 13:03:00,77.0,62.0,29.82,WNW,291,0.0,0.0,59,0.00,,,0.19,,2013-07-24 17:03:00,
2013-07-24 13:12:00,78.0,61.0,29.82,WNW,291,0.0,0.0,55,0.00,,,0.19,,2013-07-24 17:12:00,
2013-07-24 13:33:00,77.0,61.0,29.82,WNW,291,0.0,0.0,58,0.00,,,0.19,,2013-07-24 17:33:00,
2013-07-24 14:02:00,78.0,62.0,29.82,WNW,291,0.0,0.0,57,0.00,,,0.19,,2013-07-24 18:02:00,
2013-07-24 14:12:00,78.0,61.0,29.82,WNW,291,0.0,0.0,56,0.00,,,0.19,,2013-07-24 18:12:00,
2013-07-24 14:22:00,78.0,61.0,29.82,WNW,291,0.0,0.0,56,0.00,,,0.19,,2013-07-24 18:22:00,
2013-07-24 14:33:00,78.0,62.0,29.83,WNW,291,0.0,0.0,57,0.00,,,0.19,,2013-07-24 18:33:00,
2013-07-24 14:43:00,79.0,60.0,29.83,WNW,291,0.0,0.0,53,0.00,,,0.19,,2013-07-24 18:43:00,
2013-07-24 15:02:00,80.0,61.0,29.83,WNW,291,0.0,0.0,53,0.00,,,0.19,,2013-07-24 19:02:00,
2013-07-24 15:12:00,80.0,61.0,29.83,WNW,291,0.0,0.0,53,0.00,,,0.19,,2013-07-24 19:12:00,
2013-07-24 15:22:00,79.0,61.0,29.83,WNW,291,0.0,0.0,54,0.00,,,0.19,,2013-07-24 19:22:00,
2013-07-24 15:32:00,79.0,60.0,29.84,WNW,291,0.0,0.0,52,0.00,,,0.00,,2013-07-24 19:32:00,
2013-07-24 15:43:00,79.0,60.0,29.84,WNW,291,0.0,0.0,53,0.00,,,0.00,,2013-07-24 19:43:00,
2013-07-24 16:02:00,79.0,61.0,29.84,WNW,291,0.0,0.0,54,0.00,,,0.00,,2013-07-24 20:02:00,
2013-07-24 16:13:00,79.0,58.0,29.84,WNW,291,0.0,0.0,49,0.00,,,0.00,,2013-07-24 20:13:00,
2013-07-24 16:32:00,79.0,58.0,29.83,WNW,291,0.0,0.0,48,0.00,,,0.00,,2013-07-24 20:32:00,
2013-07-24 16:43:00,79.0,59.0,29.83,WNW,291,0.0,0.0,50,0.00,,,0.00,,2013-07-24 20:43:00,
2013-07-24 16:53:00,79.0,59.0,29.83,WNW,291,0.0,0.0,50,0.00,,,0.00,,2013-07-24 20:53:00,
2013-07-24 17:03:00,79.0,59.0,29.83,WNW,291,0.0,0.0,51,0.00,,,0.00,,2013-07-24 21:03:00,
2013-07-24 17:12:00,80.0,59.0,29.83,WNW,291,0.0,0.0,48,0.00,,,0.00,,2013-07-24 21:12:00,
2013-07-24 17:32:00,79.0,56.0,29.84,WNW,291,0.0,0.0,46,0.00,,,0.00,,2013-07-24 21:32:00,
2013-07-24 18:02:00,77.0,57.0,29.84,WNW,291,0.0,0.0,51,0.00,,,0.00,,2013-07-24 22:02:00,
2013-07-24 18:12:00,77.0,57.0,29.84,WNW,291,0.0,0.0,51,0.00,,,0.00,,2013-07-24 22:12:00,
2013-07-24 18:22:00,77.0,57.0,29.85,WNW,291,0.0,0.0,50,0.00,,,0.00,,2013-07-24 22:22:00,
2013-07-24 18:43:00,77.0,56.0,29.85,WNW,291,0.0,0.0,49,0.00,,,0.00,,2013-07-24 22:43:00,
2013-07-24 19:02:00,77.0,56.0,29.87,WNW,291,0.0,0.0,49,0.00,,,0.00,,2013-07-24 23:02:00,
2013-07-24 19:12:00,77.0,56.0,29.87,WNW,291,0.0,0.0,49,0.00,,,0.00,,2013-07-24 23:12:00,
2013-07-24 19:22:00,77.0,56.0,29.87,WNW,291,0.0,0.0,48,0.00,,,0.00,,2013-07-24 23:22:00,
2013-07-24 19:52:00,75.0,56.0,29.88,WNW,291,0.0,0.0,52,0.00,,,0.00,,2013-07-24 23:52:00,
2013-07-24 20:02:00,73.0,55.0,29.89,WNW,291,0.0,0.0,54,0.00,,,0.00,,2013-07-25 00:02:00,
2013-07-24 20:12:00,73.0,56.0,29.90,WNW,291,0.0,0.0,55,0.00,,,0.00,,2013-07-25 00:12:00,
2013-07-24 20:22:00,73.0,56.0,29.90,WNW,291,0.0,0.0,55,0.00,,,0.00,,2013-07-25 00:22:00,
2013-07-24 20:33:00,72.0,55.0,29.91,WNW,291,0.0,0.0,56,0.00,,,0.00,,2013-07-25 00:33:00,
2013-07-24 20:43:00,71.0,55.0,29.91,WNW,291,0.0,0.0,57,0.00,,,0.00,,2013-07-25 00:43:00,
2013-07-24 20:53:00,71.0,55.0,29.91,WNW,291,0.0,0.0,58,0.00,,,0.00,,2013-07-25 00:53:00,
2013-07-24 21:03:00,70.0,55.0,29.92,WNW,291,0.0,0.0,59,0.00,,,0.00,,2013-07-25 01:03:00,
2013-07-24 21:12:00,70.0,55.0,29.92,WNW,291,0.0,0.0,60,0.00,,,0.00,,2013-07-25 01:12:00,
2013-07-24 21:22:00,69.0,55.0,29.93,WNW,291,0.0,0.0,60,0.00,,,0.00,,2013-07-25 01:22:00,
2013-07-24 21:32:00,69.0,55.0,29.94,WNW,291,0.0,0.0,60,0.00,,,0.00,,2013-07-25 01:32:00,
2013-07-24 21:43:00,68.0,54.0,29.94,WNW,291,0.0,0.0,61,0.00,,,0.00,,2013-07-25 01:43:00,
2013-07-24 22:22:00,67.0,53.0,29.96,WNW,291,0.0,0.0,61,0.00,,,0.00,,2013-07-25 02:22:00,
2013-07-24 22:43:00,67.0,53.0,29.97,WNW,291,0.0,0.0,60,0.00,,,0.00,,2013-07-25 02:43:00,
2013-07-24 23:02:00,66.0,52.0,29.98,WNW,291,0.0,0.0,61,0.00,,,0.00,,2013-07-25 03:02:00,
2013-07-24 23:16:00,66.0,52.0,29.98,WNW,291,0.0,0.0,60,0.00,,,0.00,,2013-07-25 03:16:00,
2013-07-24 23:38:00,66.0,53.0,29.98,WNW,291,0.0,0.0,62,0.00,,,0.00,,2013-07-25 03:38:00,
2013-07-24 23:52:00,66.0,53.0,29.98,WNW,291,0.0,0.0,62,0.00,,,0.00,,2013-07-25 03:52:00,